SCP
0 0 0 0 0 0 0 0 0 0 0 0 0 0 0 0 0 0 0 0 0 0 0 0 0 0 0 0 0 0 0 0 0 0 0 0 0 0 0 0 0 0 0 0
0 0 0 0 0 0 0 0 0 0 0 0 0 0 0 0 0 0 0 0 0 0 0 0 0 0 0 0 0 0 0 0 0 0 0 0 0 0 0 0 0 0 0 0
0 0 0 0 0 0 0 0 0 0 0 0 0 0 0 0 0 0 0 0 0 0 0 0 0 0 0 0 0 0 0 0 0 0 0 0 0 0 0 0 0 0 0 0
0 0 0 0 0 0 0 0 0 0 0 0 0 0 0 0 0 0 0 0 0 0 0 0 0 0 0 0 0 0 0 0 0 0 0 0 0 0 0 0 0 0 0 0
0 0 0 0 0 0 0 0 0 0 0 0 0 0 0 0 0 0 0 0 0 0 0 0 0 0 0 0 0 0 0 0 0 0 0 0 0 0 0 0 0 0 0 0
0 0 0 0 0 0 0 0 0 0 0 0 0 0 0 0 0 0 0 0 0 0 0 0 0 0 0 0 0 0 0 0 0 0 0 0 0 0 0 0 0 0 0 0
0 0 0 0 0 0 0 0 0 0 0 0 0 0 0 0 0 0 0 0 0 0 0 0 0 0 0 0 0 0 0 0 0 0 0 0 0 0 0 0 0 0 0 0
0 0 0 0 0 0 0 0 0 0 0 0 0 0 0 0 0 0 0 0 0 0 0 0 0 0 0 0 0 0 0 0 0 0 0 0 0 0 0 0 0 0 0 0
0 0 0 0 0 0 0 0 0 0 0 0 0 0 0 0 0 0 0 0 0 0 0 0 0 0 0 0 0 0 0 0 0 0 0 0 0 0 0 0 0 0 0 0
0 0 0 0 0 0 0 0 0 0 0 0 0 0 0 0 0 0 0 0 0 0 0 0 0 0 0 0 0 0 0 0 0 0 0 0 0 0 0 0 0 0 0 0
0 0 0 0 0 0 0 0 0 0 0 0 0 0 0 0 0 0 0 0 0 0 0 0 0 0 0 0 0 0 0 0 0 0 0 0 0 0 0 0 0 0 0 0
0 0 0 0 0 0 0 0 0 0 0 0 0 0 0 0 0 0 0 0 0 0 0 0 0 0 0 0 0 0 0 0 0 0 0 0 0 0 0 0 0 0 0 0
0 0 0 0 0 0 0 0 0 0 0 0 0 0 0 0 0 0 0 0 0 0 0 0 0 0 0 0 0 0 0 0 0 0 0 0 0 0 0 0 0 0 0 0
0 0 0 0 0 0 0 0 -0 -0 0 0 0 0 0 0 0 0 0 0 0 0 0 0 0 0 0 0 0 0 0 0 0 0 0 0 0 0 0 0 0 0 0 0
0 0 0 0 0 0 0 0 0 -0 -0 -0 0 0 0 0 0 0 0 0 0 0 0 0 0 0 0 0 0 0 0 0 0 0 0 0 0 0 0 0 0 0 0 0
0 0 0 0 0 0 0 0 0 0 0 -0 -0 -0 0 0 0 0 0 0 0 0 0 0 0 0 0 0 0 0 0 0 0 0 0 0 0 0 0 0 0 0 0 0
0 0 0 0 0 0 0 0 0 0 0 0 0 0 0 0 0 0 0 0 0 0 0 0 0 0 0 0 0 0 0 0 0 0 0 0 0 0 0 0 0 0 0 0
0 0 0 0 0 0 0 0 0 0 0 0 0 0 0 0 0 0 0 0 0 0 0 0 0 0 0 0 0 0 0 0 0 0 0 0 0 0 0 0 0 0 0 0
0 0 0 0 0 0 0 0 0 0 0 0 0 0 0 0 0 -0 0 0 0 0 0 0 0 0 0 0 0 0 0 0 0 0 0 0 0 0 0 0 0 0 0 0
0 0 0 0 0 0 0 0 0 0 0 0 0 0 0 0 0 0 0 0 0 0 0 0 0 0 0 0 0 0 0 0 0 0 0 0 0 0 0 0 0 0 0 0
0 0 0 0 0 0 0 0 0 0 0 0 0 0 0 0 0 0 0 0 0 0 0 0 0 0 0 0 0 0 0 0 0 0 0 0 0 0 0 0 0 0 0 0
0 0 0 0 0 0 0 0 0 0 0 0 0 0 0 0 0 0 0 0 0 0 0 0 0 0 0 0 0 0 0 0 0 0 0 0 0 0 0 0 0 0 0 0
0 0 0 0 0 0 0 0 0 0 -0 -0 0 0 0 0 0 0 0 0 0 0 0 0 0 0 0 0 0 0 0 0 0 0 0 0 0 0 0 0 0 0 0 0
0 0 0 0 0 0 0 0 0 0 -0 0 0 0 0 0 0 0 0 0 0 0 0 0 0 0 0 0 0 0 0 0 0 0 0 0 0 0 0 0 0 0 0 0
0 0 0 0 0 0 0 0 0 -0 0 0 0 0 0 0 0 0 0 0 0 0 0 0 0 0 0 0 0 0 0 0 0 0 0 0 0 0 0 0 0 0 0 0
0 0 0 0 0 0 0 0 0 0 0 0 0 0 0 0 0 0 0 0 0 0 0 0 0 0 0 0 0 0 0 0 0 0 0 0 0 0 0 0 0 0 0 0
Wind_Speed_500mb
9 6 19 24 23 6 4 8 11 10 8 9 18 27 31 32 29 37 59 69 73 73 71 63 58 59 64 64 63 64 63 61 61 65 64 60 55 50 46 43 40 40 39 38
2 17 25 13 13 14 13 14 18 17 15 15 17 25 21 17 19 49 58 75 75 69 65 61 67 65 69 69 69 68 66 63 63 65 64 59 54 51 47 44 43 42 40 41
15 12 7 17 13 13 19 13 12 20 9 8 9 16 14 13 10 41 61 66 63 58 56 45 54 70 72 75 74 69 68 64 62 61 63 59 57 53 54 51 48 46 46 46
14 23 28 11 9 17 16 19 23 13 5 10 5 11 10 14 16 39 71 63 51 44 26 30 37 61 71 73 69 66 65 64 61 59 66 66 65 64 61 53 48 48 49 50
16 5 8 14 22 17 18 15 15 9 8 4 8 3 14 9 20 42 51 69 72 58 47 36 14 29 54 61 59 60 59 60 58 59 62 64 64 61 56 53 51 51 51 53
21 11 7 13 5 11 4 7 11 9 6 7 17 14 6 10 17 27 48 60 69 73 58 42 29 11 17 33 42 48 50 53 53 54 56 60 60 59 58 55 56 55 55 56
10 10 9 15 11 1 6 10 5 5 1 15 1 10 7 14 22 25 30 55 66 76 75 65 50 31 17 7 19 31 37 42 46 48 51 55 55 56 56 55 54 56 58 61
7 15 6 1 19 12 12 14 10 12 9 8 8 12 8 19 26 39 53 57 68 78 74 72 64 51 32 11 8 21 27 30 38 42 45 48 49 51 53 54 54 53 56 57
10 11 12 6 7 13 5 10 17 9 4 1 9 8 11 20 31 50 57 65 68 72 74 66 60 58 50 36 22 3 18 27 34 34 36 42 44 48 51 54 54 52 51 53
4 16 9 11 3 2 10 3 2 4 10 15 12 13 5 25 32 34 45 55 59 66 71 65 62 56 51 46 39 27 16 3 19 34 39 42 41 45 48 50 51 48 47 49
9 8 10 8 7 11 6 8 12 5 8 25 27 6 13 17 22 25 36 43 49 56 65 62 59 55 51 44 43 39 29 19 7 4 20 34 40 40 41 41 45 45 46 50
7 8 16 13 25 6 18 18 16 8 18 8 13 7 13 17 23 30 32 36 39 44 52 57 56 54 54 53 47 44 37 29 23 16 8 3 7 19 28 37 43 47 47 50
8 6 11 27 0 11 15 12 11 11 13 12 15 4 19 26 25 30 32 36 41 45 51 56 57 58 55 53 51 47 41 36 31 26 21 19 19 18 15 15 20 36 44 48
15 6 10 14 15 17 13 12 16 6 7 13 2 8 19 23 20 25 29 32 36 43 52 56 56 54 50 49 48 48 45 41 36 30 27 24 23 25 27 28 29 26 26 33
5 7 5 20 16 6 16 14 22 13 15 7 8 9 11 17 22 24 31 36 39 44 51 56 54 55 53 47 42 41 40 39 39 36 31 26 21 18 17 19 22 26 28 31
8 7 18 22 17 9 13 21 8 15 13 9 14 6 16 27 33 18 34 43 47 55 60 60 54 53 53 49 44 38 36 36 34 32 27 26 25 24 20 16 13 14 19 25
10 5 4 10 10 17 6 13 11 6 14 10 8 8 23 17 29 15 26 32 39 45 49 52 52 49 51 50 47 43 39 35 33 32 30 26 24 22 22 22 21 19 17 16
9 4 8 6 5 9 5 9 13 13 9 14 11 15 21 28 46 34 18 52 49 50 50 48 48 45 46 44 41 38 32 32 32 31 30 29 28 27 26 23 23 23 24 26
3 8 2 5 4 3 4 4 5 5 3 5 8 13 25 49 34 16 10 51 48 43 46 44 42 42 43 41 40 37 31 31 31 32 31 31 33 29 28 28 27 26 25 26
16 13 6 4 6 9 7 5 15 2 7 10 12 21 32 41 11 8 55 58 51 49 47 46 45 45 43 41 39 36 36 38 36 36 38 39 38 36 35 32 31 30 28 27
9 8 6 5 4 7 8 20 1 3 8 28 28 34 33 8 22 60 59 57 53 55 50 47 47 46 42 42 40 40 43 43 41 43 45 41 39 39 38 36 33 34 32 33
4 4 3 3 6 6 12 5 4 2 21 35 35 37 37 46 61 57 60 60 62 58 56 52 48 46 42 38 44 48 43 43 47 49 49 49 47 44 42 40 39 39 39 39
3 1 3 5 4 1 10 12 15 16 41 44 36 36 55 58 56 56 62 65 62 59 58 54 54 53 47 51 50 46 52 56 56 55 52 49 48 45 43 41 39 38 38 40
8 17 0 7 4 14 12 19 9 33 57 45 37 58 51 52 54 61 64 63 61 58 57 56 54 54 65 63 58 59 59 56 56 55 52 49 49 46 41 44 45 44 41 40
4 15 8 8 8 19 6 20 26 58 47 52 53 50 51 53 60 60 60 60 58 61 58 52 58 70 63 62 61 54 54 54 53 52 50 48 47 46 46 45 45 45 44 39
11 2 3 7 13 14 34 48 55 41 62 54 58 57 57 53 54 54 56 56 59 56 56 68 63 64 64 62 61 57 53 51 51 53 55 55 54 53 50 48 52 46 41 41
Wind_Direction_500mb
201 155 219 202 206 192 143 215 254 259 215 232 235 245 258 264 281 271 273 274 270 265 266 252 245 241 231 229 227 225 221 219 216 213 213 215 217 218 217 216 215 215 211 207
99 236 238 197 215 232 259 271 273 287 258 180 273 264 259 258 240 260 267 272 274 279 279 265 245 237 230 230 227 225 224 222 221 220 221 221 221 221 223 220 216 217 214 209
194 228 51 184 203 209 235 218 244 246 302 247 286 285 253 276 240 266 272 279 283 285 289 270 248 235 226 225 227 226 224 223 226 224 222 220 220 222 221 219 218 217 215 211
237 247 249 199 245 184 254 204 237 254 238 261 143 285 313 265 282 15 6 9 24 13 335 289 263 234 224 223 224 225 224 223 228 227 224 223 222 221 226 227 224 218 218 215
247 268 208 218 232 175 247 195 202 208 205 331 212 287 269 272 11 360 346 4 21 34 39 33 344 246 224 222 224 225 224 224 228 228 229 228 227 230 235 233 228 225 223 221
245 244 253 216 199 182 144 111 45 48 93 258 204 168 314 7 339 337 338 357 20 29 38 48 58 59 225 220 222 225 225 226 229 232 234 235 234 236 236 235 234 231 229 227
326 238 247 181 221 253 140 100 293 302 189 234 212 169 84 52 13 358 6 24 23 31 39 40 42 54 80 146 233 239 237 236 236 237 240 240 240 241 242 243 242 239 235 232
278 322 191 359 211 188 203 170 186 218 202 249 86 216 137 74 31 25 26 28 26 26 31 40 42 44 51 62 184 208 236 257 251 249 248 247 246 245 244 246 246 246 247 245
339 271 330 225 232 156 183 184 234 283 201 19 208 67 195 48 26 22 19 20 20 20 24 30 35 41 44 50 53 58 223 224 231 251 261 253 251 248 249 251 252 249 249 249
344 291 260 325 3 337 187 179 153 221 220 234 245 180 148 9 10 15 16 15 13 16 22 25 27 27 32 38 44 56 74 159 232 229 231 240 250 253 256 255 252 250 249 249
1 226 280 313 197 229 300 250 227 218 203 249 255 207 37 30 18 16 20 17 15 16 20 22 23 24 24 26 29 33 38 41 71 188 226 233 236 241 247 250 255 253 250 253
4 291 284 227 279 310 66 22 6 282 267 251 261 199 36 40 37 27 24 18 17 18 20 24 23 22 23 23 21 19 18 15 17 20 16 26 227 221 221 228 233 239 246 253
319 296 323 308 128 47 45 53 5 305 281 273 279 108 24 26 35 27 22 17 16 15 16 21 22 23 24 22 21 19 15 12 6 358 341 318 307 310 301 280 259 239 235 237
196 238 216 257 302 336 326 23 358 266 268 309 162 135 6 359 6 16 14 15 17 16 15 14 13 14 18 21 19 15 12 9 6 3 1 350 337 318 307 302 298 289 273 250
75 254 284 288 300 337 48 19 25 44 351 223 93 87 360 346 339 10 8 5 8 8 8 8 6 4 3 9 14 12 8 4 0 356 356 354 349 338 323 301 286 277 267 258
6 286 317 294 283 174 81 27 30 32 3 68 130 112 20 348 330 16 15 4 357 357 356 356 360 360 359 356 360 6 3 357 355 350 352 342 332 325 322 317 302 282 269 256
277 227 92 264 143 125 105 9 46 82 33 337 31 19 353 347 343 3 26 10 2 351 344 349 350 352 352 350 348 355 356 352 348 339 340 337 331 325 317 305 291 283 279 272
250 323 228 264 327 234 88 68 73 99 47 20 1 351 337 314 303 296 12 1 351 347 340 342 344 343 345 343 339 344 351 349 347 341 343 341 334 329 319 307 295 282 271 263
206 245 341 99 72 26 298 20 4 47 203 345 312 323 337 338 326 150 327 342 340 334 333 334 337 334 334 335 335 338 344 342 340 339 341 341 337 334 329 321 311 301 287 272
26 17 111 37 147 216 223 328 323 129 279 5 321 318 341 354 12 261 320 331 331 333 336 332 331 329 326 329 332 334 338 337 337 335 332 328 322 321 320 318 317 314 310 299
346 3 74 9 117 293 252 319 74 90 274 331 327 317 316 310 292 307 319 323 328 331 332 331 326 328 329 329 327 325 326 326 321 317 315 314 313 311 311 308 304 301 301 300
102 64 346 49 69 323 355 359 179 273 344 332 329 319 316 314 316 318 322 326 328 329 330 331 329 327 327 328 323 320 316 312 309 307 305 305 305 305 304 301 297 294 292 288
351 179 261 166 237 297 318 135 115 15 354 344 328 331 322 318 320 322 323 325 325 326 327 328 326 323 322 321 323 313 309 308 306 305 304 303 301 300 301 301 298 295 293 290
7 18 329 7 288 299 273 197 237 341 338 331 326 321 320 318 320 320 320 321 323 324 324 323 319 315 316 317 311 309 311 310 308 307 304 302 299 300 295 288 290 289 287 287
310 335 336 276 313 340 88 239 289 316 323 321 322 324 322 322 316 319 318 319 321 320 323 318 311 312 311 312 312 313 312 311 308 305 304 302 301 299 296 291 289 288 284 282
2 261 67 262 314 290 292 309 320 321 320 324 324 324 321 319 318 320 319 320 317 323 310 308 311 311 312 313 313 313 311 309 306 302 302 301 300 299 297 295 293 286 283 280
Wind_Speed_850mb
9 6 19 24 23 6 4 8 11 10 8 9 18 27 31 32 29 37 59 69 73 73 71 63 58 59 64 64 63 64 63 61 61 65 64 60 55 50 46 43 40 40 39 38
2 17 25 13 13 14 13 14 18 17 15 15 17 25 21 17 19 49 58 75 75 69 65 61 67 65 69 69 69 68 66 63 63 65 64 59 54 51 47 44 43 42 40 41
15 12 7 17 13 13 19 13 12 20 9 8 9 16 14 13 10 41 61 66 63 58 56 45 54 70 72 75 74 69 68 64 62 61 63 59 57 53 54 51 48 46 46 46
14 23 28 11 9 17 16 19 23 13 5 10 5 11 10 14 16 39 71 63 51 44 26 30 37 61 71 73 69 66 65 64 61 59 66 66 65 64 61 53 48 48 49 50
16 5 8 14 22 17 18 15 15 9 8 4 8 3 14 9 20 42 51 69 72 58 47 36 14 29 54 61 59 60 59 60 58 59 62 64 64 61 56 53 51 51 51 53
21 11 7 13 5 11 4 7 11 9 6 7 17 14 6 10 17 27 48 60 69 73 58 42 29 11 17 33 42 48 50 53 53 54 56 60 60 59 58 55 56 55 55 56
10 10 9 15 11 1 6 10 5 5 1 15 1 10 7 14 22 25 30 55 66 76 75 65 50 31 17 7 19 31 37 42 46 48 51 55 55 56 56 55 54 56 58 61
7 15 6 1 19 12 12 14 10 12 9 8 8 12 8 19 26 39 53 57 68 78 74 72 64 51 32 11 8 21 27 30 38 42 45 48 49 51 53 54 54 53 56 57
10 11 12 6 7 13 5 10 17 9 4 1 9 8 11 20 31 50 57 65 68 72 74 66 60 58 50 36 22 3 18 27 34 34 36 42 44 48 51 54 54 52 51 53
4 16 9 11 3 2 10 3 2 4 10 15 12 13 5 25 32 34 45 55 59 66 71 65 62 56 51 46 39 27 16 3 19 34 39 42 41 45 48 50 51 48 47 49
9 8 10 8 7 11 6 8 12 5 8 25 27 6 13 17 22 25 36 43 49 56 65 62 59 55 51 44 43 39 29 19 7 4 20 34 40 40 41 41 45 45 46 50
7 8 16 13 25 6 18 18 16 8 18 8 13 7 13 17 23 30 32 36 39 44 52 57 56 54 54 53 47 44 37 29 23 16 8 3 7 19 28 37 43 47 47 50
8 6 11 27 0 11 15 12 11 11 13 12 15 4 19 26 25 30 32 36 41 45 51 56 57 58 55 53 51 47 41 36 31 26 21 19 19 18 15 15 20 36 44 48
15 6 10 14 15 17 13 12 16 6 7 13 2 8 19 23 20 25 29 32 36 43 52 56 56 54 50 49 48 48 45 41 36 30 27 24 23 25 27 28 29 26 26 33
5 7 5 20 16 6 16 14 22 13 15 7 8 9 11 17 22 24 31 36 39 44 51 56 54 55 53 47 42 41 40 39 39 36 31 26 21 18 17 19 22 26 28 31
8 7 18 22 17 9 13 21 8 15 13 9 14 6 16 27 33 18 34 43 47 55 60 60 54 53 53 49 44 38 36 36 34 32 27 26 25 24 20 16 13 14 19 25
10 5 4 10 10 17 6 13 11 6 14 10 8 8 23 17 29 15 26 32 39 45 49 52 52 49 51 50 47 43 39 35 33 32 30 26 24 22 22 22 21 19 17 16
9 4 8 6 5 9 5 9 13 13 9 14 11 15 21 28 46 34 18 52 49 50 50 48 48 45 46 44 41 38 32 32 32 31 30 29 28 27 26 23 23 23 24 26
3 8 2 5 4 3 4 4 5 5 3 5 8 13 25 49 34 16 10 51 48 43 46 44 42 42 43 41 40 37 31 31 31 32 31 31 33 29 28 28 27 26 25 26
16 13 6 4 6 9 7 5 15 2 7 10 12 21 32 41 11 8 55 58 51 49 47 46 45 45 43 41 39 36 36 38 36 36 38 39 38 36 35 32 31 30 28 27
9 8 6 5 4 7 8 20 1 3 8 28 28 34 33 8 22 60 59 57 53 55 50 47 47 46 42 42 40 40 43 43 41 43 45 41 39 39 38 36 33 34 32 33
4 4 3 3 6 6 12 5 4 2 21 35 35 37 37 46 61 57 60 60 62 58 56 52 48 46 42 38 44 48 43 43 47 49 49 49 47 44 42 40 39 39 39 39
3 1 3 5 4 1 10 12 15 16 41 44 36 36 55 58 56 56 62 65 62 59 58 54 54 53 47 51 50 46 52 56 56 55 52 49 48 45 43 41 39 38 38 40
8 17 0 7 4 14 12 19 9 33 57 45 37 58 51 52 54 61 64 63 61 58 57 56 54 54 65 63 58 59 59 56 56 55 52 49 49 46 41 44 45 44 41 40
4 15 8 8 8 19 6 20 26 58 47 52 53 50 51 53 60 60 60 60 58 61 58 52 58 70 63 62 61 54 54 54 53 52 50 48 47 46 46 45 45 45 44 39
11 2 3 7 13 14 34 48 55 41 62 54 58 57 57 53 54 54 56 56 59 56 56 68 63 64 64 62 61 57 53 51 51 53 55 55 54 53 50 48 52 46 41 41
Wind_Direction_850mb
201 155 219 202 206 192 143 215 254 259 215 232 235 245 258 264 281 271 273 274 270 265 266 252 245 241 231 229 227 225 221 219 216 213 213 215 217 218 217 216 215 215 211 207
99 236 238 197 215 232 259 271 273 287 258 180 273 264 259 258 240 260 267 272 274 279 279 265 245 237 230 230 227 225 224 222 221 220 221 221 221 221 223 220 216 217 214 209
194 228 51 184 203 209 235 218 244 246 302 247 286 285 253 276 240 266 272 279 283 285 289 270 248 235 226 225 227 226 224 223 226 224 222 220 220 222 221 219 218 217 215 211
237 247 249 199 245 184 254 204 237 254 238 261 143 285 313 265 282 15 6 9 24 13 335 289 263 234 224 223 224 225 224 223 228 227 224 223 222 221 226 227 224 218 218 215
247 268 208 218 232 175 247 195 202 208 205 331 212 287 269 272 11 360 346 4 21 34 39 33 344 246 224 222 224 225 224 224 228 228 229 228 227 230 235 233 228 225 223 221
245 244 253 216 199 182 144 111 45 48 93 258 204 168 314 7 339 337 338 357 20 29 38 48 58 59 225 220 222 225 225 226 229 232 234 235 234 236 236 235 234 231 229 227
326 238 247 181 221 253 140 100 293 302 189 234 212 169 84 52 13 358 6 24 23 31 39 40 42 54 80 146 233 239 237 236 236 237 240 240 240 241 242 243 242 239 235 232
278 322 191 359 211 188 203 170 186 218 202 249 86 216 137 74 31 25 26 28 26 26 31 40 42 44 51 62 184 208 236 257 251 249 248 247 246 245 244 246 246 246 247 245
339 271 330 225 232 156 183 184 234 283 201 19 208 67 195 48 26 22 19 20 20 20 24 30 35 41 44 50 53 58 223 224 231 251 261 253 251 248 249 251 252 249 249 249
344 291 260 325 3 337 187 179 153 221 220 234 245 180 148 9 10 15 16 15 13 16 22 25 27 27 32 38 44 56 74 159 232 229 231 240 250 253 256 255 252 250 249 249
1 226 280 313 197 229 300 250 227 218 203 249 255 207 37 30 18 16 20 17 15 16 20 22 23 24 24 26 29 33 38 41 71 188 226 233 236 241 247 250 255 253 250 253
4 291 284 227 279 310 66 22 6 282 267 251 261 199 36 40 37 27 24 18 17 18 20 24 23 22 23 23 21 19 18 15 17 20 16 26 227 221 221 228 233 239 246 253
319 296 323 308 128 47 45 53 5 305 281 273 279 108 24 26 35 27 22 17 16 15 16 21 22 23 24 22 21 19 15 12 6 358 341 318 307 310 301 280 259 239 235 237
196 238 216 257 302 336 326 23 358 266 268 309 162 135 6 359 6 16 14 15 17 16 15 14 13 14 18 21 19 15 12 9 6 3 1 350 337 318 307 302 298 289 273 250
75 254 284 288 300 337 48 19 25 44 351 223 93 87 360 346 339 10 8 5 8 8 8 8 6 4 3 9 14 12 8 4 0 356 356 354 349 338 323 301 286 277 267 258
6 286 317 294 283 174 81 27 30 32 3 68 130 112 20 348 330 16 15 4 357 357 356 356 360 360 359 356 360 6 3 357 355 350 352 342 332 325 322 317 302 282 269 256
277 227 92 264 143 125 105 9 46 82 33 337 31 19 353 347 343 3 26 10 2 351 344 349 350 352 352 350 348 355 356 352 348 339 340 337 331 325 317 305 291 283 279 272
250 323 228 264 327 234 88 68 73 99 47 20 1 351 337 314 303 296 12 1 351 347 340 342 344 343 345 343 339 344 351 349 347 341 343 341 334 329 319 307 295 282 271 263
206 245 341 99 72 26 298 20 4 47 203 345 312 323 337 338 326 150 327 342 340 334 333 334 337 334 334 335 335 338 344 342 340 339 341 341 337 334 329 321 311 301 287 272
26 17 111 37 147 216 223 328 323 129 279 5 321 318 341 354 12 261 320 331 331 333 336 332 331 329 326 329 332 334 338 337 337 335 332 328 322 321 320 318 317 314 310 299
346 3 74 9 117 293 252 319 74 90 274 331 327 317 316 310 292 307 319 323 328 331 332 331 326 328 329 329 327 325 326 326 321 317 315 314 313 311 311 308 304 301 301 300
102 64 346 49 69 323 355 359 179 273 344 332 329 319 316 314 316 318 322 326 328 329 330 331 329 327 327 328 323 320 316 312 309 307 305 305 305 305 304 301 297 294 292 288
351 179 261 166 237 297 318 135 115 15 354 344 328 331 322 318 320 322 323 325 325 326 327 328 326 323 322 321 323 313 309 308 306 305 304 303 301 300 301 301 298 295 293 290
7 18 329 7 288 299 273 197 237 341 338 331 326 321 320 318 320 320 320 321 323 324 324 323 319 315 316 317 311 309 311 310 308 307 304 302 299 300 295 288 290 289 287 287
310 335 336 276 313 340 88 239 289 316 323 321 322 324 322 322 316 319 318 319 321 320 323 318 311 312 311 312 312 313 312 311 308 305 304 302 301 299 296 291 289 288 284 282
2 261 67 262 314 290 292 309 320 321 320 324 324 324 321 319 318 320 319 320 317 323 310 308 311 311 312 313 313 313 311 309 306 302 302 301 300 299 297 295 293 286 283 280